Location: Hartford
(41.7640°N, 72.6860°W)
Time: 06:53:03
(UTC-04:00)

ISS - Visible Passes

Search period start: 03 September 2015 00:00
Search period end: 13 September 2015 00:00
Orbit: 400 x 403 km, 51.6° (Epoch: 01 September)

Date Brightness Start Highest point End Pass type
(mag) Time Alt. Az. Time Alt. Az. Time Alt. Az.
07 Sep -0.4 05:25:25 10° SSE 05:26:32 12° SE 05:27:47 10° ESE visible
09 Sep -1.5 05:13:32 11° SSW 05:16:08 26° SE 05:18:56 10° ENE visible
10 Sep -0.7 04:22:46 13° SE 04:23:02 14° SE 04:24:48 10° E visible
10 Sep -3.3 05:55:51 10° WSW 05:59:06 70° NW 06:02:22 10° NE visible
11 Sep -3.0 05:04:32 31° SSW 05:05:50 61° SE 05:09:04 10° ENE visible
12 Sep -1.3 04:13:36 25° ESE 04:13:36 25° ESE 04:15:34 10° ENE visible
12 Sep -2.3 05:46:12 11° W 05:49:01 35° NNW 05:52:05 10° NE visible
